x

East Hatteras - 150 Nm East Of Cape Hatteras (41001) Wave Buoy

6:50 - Sat 6th Feb 2016 All times are EST. -5 hours from GMT.

  • Sig Wave height 10.5ft
  • Swell Direction
  • Peak Period 11s
  • Average Period 8s
  • Wind
    13mph, 18mph gusts
  • Sea Temp 73°f
  • Aire Temp 56°f
  • Sea Pressure 1026.3mb
  • East Hatteras - 150 Nm East Of Cape Hatteras
  • East Hatteras - 150 Nm East Of Cape Hatteras

More Historic Weather Station data

Upgrade to MSW Pro to gain access to the past 30 days of data for over 8000 Wavebouys and Weather Stations around the globe.

Join Pro

Comparision Forecast

View Surf forecast
   
sáb 02/06 6:50 10.5ft 11s 8s 13 18 mph 1026.3mb 73f 56f
6:40  -   -   -  9 18 mph 1026.3mb 73f 56f
6:30  -   -   -  11 18 mph 1026.2mb 73f 56f
6:20  -   -   -  11 18 mph 1026.2mb 73f 56f
6:10  -   -   -  11 18 mph 1026mb 73f 56f
6:00  -   -   -  13 20 mph 1026mb 73f 56f
5:50 10ft 12s 8s 13 20 mph 1025.8mb 73f 56f
5:40  -   -   -  13 20 mph 1025.8mb 73f 56f
5:30  -   -   -  11 18 mph 1025.7mb 73f 56f
5:20  -   -   -  11 18 mph 1025.8mb 73f 56f
5:10  -   -   -  11 20 mph 1025.7mb 73f 56f
5:00  -   -   -  11 18 mph 1025.7mb 73f 56f
4:50 10ft 12s 8s 13 20 mph 1025.7mb 73f 55f
4:40  -   -   -  13 20 mph 1025.7mb 73f 55f
4:30  -   -   -  13 20 mph 1025.8mb 73f 55f
4:20  -   -   -  13 20 mph 1025.7mb 73f 56f
4:10  -   -   -  13 25 mph 1025.7mb 73f 56f
4:00  -   -   -  13 20 mph 1025.8mb 73f 55f
3:50 11ft 11s 8s 16 22 mph 1025.8mb 73f 55f
3:40  -   -   -  16 22 mph 1025.7mb 73f 55f
3:30  -   -   -  16 25 mph 1025.5mb 73f 55f
3:20  -   -   -  18 27 mph 1025.7mb 73f 55f
3:10  -   -   -  18 25 mph 1025.5mb 73f 55f
3:00  -   -   -  18 27 mph 1025.3mb 73f 55f
2:50 10.5ft 11s 7s 18 25 mph 1025.3mb 73f 55f
2:40  -   -   -  16 27 mph 1025.3mb 73f 55f
2:30  -   -   -  18 25 mph 1025.5mb 73f 55f
2:20  -   -   -  18 27 mph 1025.5mb 73f 55f
2:10  -   -   -  18 27 mph 1025.5mb 73f 55f
2:00  -   -   -  16 22 mph 1025.5mb 73f 55f
1:50 10.5ft 11s 7s 18 27 mph 1025.7mb 73f 55f
1:40  -   -   -  16 25 mph 1025.5mb 73f 56f
1:30  -   -   -  18 25 mph 1025.5mb 73f 55f
1:20  -   -   -  18 29 mph 1025.5mb 73f 56f
1:10  -   -   -  20 29 mph 1025.5mb 73f 55f
1:00  -   -   -  20 29 mph 1025.3mb 73f 56f
12:50 10.5ft 11s 7s 18 29 mph 1025.7mb 73f 56f
12:40  -   -   -  20 29 mph 1025.8mb 73f 56f
12:30  -   -   -  20 27 mph 1025.8mb 73f 55f
12:20  -   -   -  20 29 mph 1025.8mb 73f 56f
12:10  -   -   -  20 27 mph 1025.8mb 73f 55f
12:00  -   -   -  20 29 mph 1025.7mb 73f 56f
vie 02/05 11:50 12.5ft 12s 7s 22 31 mph 1025.7mb 73f 56f
11:40  -   -   -  18 31 mph 1025.7mb 73f 55f
11:30  -   -   -  22 34 mph 1025.5mb 73f 55f
11:20  -   -   -  22 31 mph 1025.3mb 73f 55f
11:10  -   -   -  25 34 mph 1025.3mb 73f 56f
11:00  -   -   -  22 36 mph 1025.3mb 73f 56f
10:50 14.5ft 11s 8s 22 34 mph 1025.5mb 73f 56f
10:40  -   -   -  22 31 mph 1025.7mb 73f 55f
10:30  -   -   -  22 34 mph 1025.7mb 73f 56f
10:20  -   -   -  22 29 mph 1025.5mb 73f 55f
10:10  -   -   -  22 34 mph 1025.5mb 73f 55f
10:00  -   -   -  22 31 mph 1025.5mb 73f 55f
9:50 15.5ft 11s 8s 25 34 mph 1025.3mb 73f 55f
9:40  -   -   -  25 34 mph 1025mb 73f 56f
9:30  -   -   -  25 34 mph 1025mb 73f 55f
9:20  -   -   -  25 36 mph 1024.8mb 73f 56f
9:10  -   -   -  22 34 mph 1024.7mb 73f 55f
9:00  -   -   -  25 31 mph 1024.5mb 73f 55f
8:50 15ft 11s 8s 25 34 mph 1024.5mb 73f 56f
8:40  -   -   -  25 34 mph 1024.3mb 73f 56f
8:30  -   -   -  27 36 mph 1024.2mb 73f 56f
8:20  -   -   -  25 34 mph 1024mb 73f 55f
8:10  -   -   -  25 36 mph 1024mb 73f 55f
8:00  -   -   -  25 34 mph 1023.9mb 73f 56f
7:50 15.5ft 11s 8s 25 38 mph 1023.8mb 73f 56f
7:40  -   -   -  27 36 mph 1023.5mb 73f 55f
7:30  -   -   -  27 38 mph 1023.4mb 73f 56f
7:20  -   -   -  27 36 mph 1023.3mb 73f 56f
7:10  -   -   -  27 34 mph 1023.1mb 73f 56f
7:00  -   -   -  27 36 mph 1023mb 73f 56f
6:50 15.5ft 11s 7s 27 36 mph 1023.1mb 73f 56f
6:40  -   -   -  27 38 mph 1023mb 73f 56f
6:30  -   -   -  27 36 mph 1022.9mb 73f 56f
6:20  -   -   -  29 38 mph 1022.6mb 73f 56f
6:10  -   -   -  27 38 mph 1022.5mb 73f 56f
6:00  -   -   -  29 40 mph 1022.3mb 73f 57f
5:50 15.5ft 11s 8s 29 40 mph 1022mb 73f 57f
5:40  -   -   -  29 38 mph 1021.9mb 73f 57f
5:30  -   -   -  29 38 mph 1021.8mb 73f 57f
5:20  -   -   -  29 40 mph 1021.6mb 73f 57f
5:10  -   -   -  31 40 mph 1021.4mb 73f 57f
5:00  -   -   -  29 38 mph 1021.3mb 73f 57f
4:50 16.5ft 10s 7s 31 43 mph 1021mb 73f 57f
4:40  -   -   -  31 40 mph 1021mb 73f 57f
4:30  -   -   -  31 40 mph 1020.6mb 73f 58f
4:20  -   -   -  31 45 mph 1020.5mb 73f 58f
4:10  -   -   -  31 40 mph 1020.5mb 73f 58f
4:00  -   -   -  31 40 mph 1020.3mb 73f 58f
3:50 17.5ft 10s 8s 31 43 mph 1020.1mb 73f 58f
3:40  -   -   -  31 43 mph 1020mb 73f 58f
3:30  -   -   -  31 40 mph 1019.9mb 72f 58f
3:20  -   -   -  29 38 mph 1019.5mb 72f 58f
3:10  -   -   -  31 40 mph 1019.1mb 72f 58f
3:00  -   -   -  31 43 mph 1019mb 72f 58f
2:50 15.5ft 9s 7s 34 43 mph 1019mb 72f 58f
2:40  -   -   -  31 43 mph 1018.6mb 72f 58f
2:30  -   -   -  34 45 mph 1018.5mb 73f 58f
2:20  -   -   -  34 43 mph 1018mb 73f 58f
2:10  -   -   -  31 43 mph 1018.3mb 73f 58f
2:00  -   -   -  34 43 mph 1018mb 73f 58f
1:50 14ft 9s 6s 34 45 mph 1017.8mb 73f 58f
1:40  -   -   -  34 45 mph 1017.3mb 73f 60f
1:30  -   -   -  31 40 mph 1017mb 73f 60f
1:20  -   -   -  31 40 mph 1016.8mb 73f 59f
1:10  -   -   -  31 40 mph 1016.5mb 73f 59f
1:00  -   -   -  31 40 mph 1016.5mb 73f 59f
12:50 13.5ft 9s 7s 31 43 mph 1016.3mb 73f 59f
12:40  -   -   -  31 43 mph 1016.3mb 73f 59f
12:30  -   -   -  31 40 mph 1016mb 73f 60f
12:20  -   -   -  34 40 mph 1016mb 73f 59f
12:10  -   -   -  31 38 mph 1015.8mb 73f 60f
12:00  -   -   -  31 40 mph 1015.8mb 73f 59f
11:50 13ft 8s 6s 34 45 mph 1015.8mb 73f 59f
11:40  -   -   -  36 45 mph 1015.6mb 73f 59f
11:30  -   -   -  34 45 mph 1015.5mb 73f 60f
11:20  -   -   -  34 45 mph 1015.1mb 73f 60f
11:10  -   -   -  34 43 mph 1015mb 73f 61f
11:00  -   -   -  34 45 mph 1014.8mb 73f 61f
10:50 15ft 8s 7s 36 47 mph 1014.5mb 73f 62f
10:40  -   -   -  34 43 mph 1014.5mb 73f 62f
10:30  -   -   -  36 45 mph 1014.4mb 73f 63f
10:20  -   -   -  27 45 mph 1013.5mb 73f 68f
10:10  -   -   -  40 54 mph 1012.9mb 73f 71f
10:00  -   -   -  40 49 mph 1012mb 73f 72f
9:50 14.5ft 8s 7s 36 49 mph 1011.9mb 73f 72f
9:40  -   -   -  36 49 mph 1012mb 73f 72f
9:30  -   -   -  36 45 mph 1012.3mb 73f 73f
9:20  -   -   -  36 51 mph 1012.4mb 73f 72f
9:10  -   -   -  36 47 mph 1012.5mb 73f 72f
9:00  -   -   -  36 51 mph 1012.4mb 73f 73f
8:50 13.5ft 8s 7s 36 49 mph 1012.1mb 73f 72f
8:40  -   -   -  36 49 mph 1012.3mb 73f 72f
8:30  -   -   -  38 47 mph 1012.4mb 73f 72f
8:20  -   -   -  36 45 mph 1012.4mb 73f 72f
8:10  -   -   -  34 45 mph 1011.9mb 73f 72f
8:00  -   -   -  34 47 mph 1012.3mb 73f 72f
7:50 12ft 8s 6s 36 45 mph 1011.9mb 73f 72f
7:40  -   -   -  36 45 mph 1011mb 73f 72f
7:30  -   -   -  38 51 mph 1011mb 73f 72f
7:20  -   -   -  38 49 mph 1011mb 73f 72f
7:10  -   -   -  38 51 mph 1011.5mb 73f 72f
7:00  -   -   -  38 47 mph 1011.4mb 73f 72f
6:50 12ft 7s 6s 38 49 mph 1011.3mb 73f 72f
6:40  -   -   -  36 45 mph 1011.6mb 73f 71f
6:30  -   -   -  38 47 mph 1011.9mb 73f 72f
6:20  -   -   -  34 43 mph 1012.1mb 73f 72f
6:10  -   -   -  34 43 mph 1012.3mb 73f 72f
6:00  -   -   -  34 45 mph 1012.8mb 73f 72f
5:50 11ft 8s 6s 34 43 mph 1013.1mb 73f 72f
5:40  -   -   -  34 43 mph 1013.1mb 73f 72f
5:30  -   -   -  34 40 mph 1013.3mb 73f 72f
5:20  -   -   -  31 40 mph 1013.3mb 73f 72f
5:10  -   -   -  34 43 mph 1013.5mb 73f 71f
5:00  -   -   -  31 40 mph 1013.5mb 73f 71f
4:50 10ft 7s 6s 29 38 mph 1013.9mb 73f 72f
4:40 10ft  -  6s 31 40 mph 1014.1mb 73f 72f
4:30  -   -   -  31 43 mph 1014mb 73f 71f
4:20  -   -   -  31 38 mph 1014.1mb 73f 72f
4:10  -   -   -  31 40 mph 1014.3mb 73f 72f
4:00  -   -   -  31 40 mph 1014.4mb 73f 71f
3:50 10ft 7s 6s 31 40 mph 1014.5mb 73f 71f
3:40  -   -   -  29 38 mph 1014.5mb 73f 71f
3:30  -   -   -  31 38 mph 1014.6mb 73f 71f
3:20  -   -   -  31 40 mph 1014.6mb 73f 71f
3:10  -   -   -  31 38 mph 1014.6mb 73f 71f
3:00  -   -   -  29 38 mph 1014.8mb 73f 71f
2:50 9.5ft 6s 6s 31 38 mph 1015mb 73f 71f
2:40  -   -   -  31 38 mph 1015.3mb 73f 71f
2:30  -   -   -  31 38 mph 1015.5mb 73f 71f
2:20  -   -   -  29 38 mph 1015.9mb 73f 72f
2:10  -   -   -  29 36 mph 1016mb 73f 72f
2:00  -   -   -  29 36 mph 1016mb 73f 72f
1:50 9ft 7s 6s 29 40 mph 1016.1mb 73f 72f
1:40  -   -   -  29 36 mph 1016.5mb 73f 72f
1:30  -   -   -  29 36 mph 1016.6mb 73f 72f
1:20  -   -   -  29 36 mph 1016.6mb 73f 72f
1:10  -   -   -  31 38 mph 1016.8mb 73f 71f
1:00  -   -   -  29 36 mph 1017mb 73f 72f
12:50 8.5ft 7s 6s 31 38 mph 1017mb 73f 72f
12:40  -   -   -  29 36 mph 1017.3mb 73f 72f
12:30  -   -   -  29 36 mph 1017.4mb 73f 72f
12:20  -   -   -  27 34 mph 1017.5mb 73f 72f
12:10  -   -   -  29 36 mph 1017.5mb 73f 72f
12:00  -   -   -  27 36 mph 1017.5mb 73f 72f
jue 02/04 11:50 8.5ft 7s 6s 27 36 mph 1017.6mb 73f 72f
11:40  -   -   -  29 36 mph 1018mb 73f 72f
11:30  -   -   -  27 36 mph 1018mb 73f 72f
11:20  -   -   -  27 34 mph 1018.3mb 73f 72f
11:10  -   -   -  27 36 mph 1018.3mb 73f 72f
11:00  -   -   -  27 34 mph 1018.4mb 73f 72f
10:50 8ft 8s 6s 27 34 mph 1018.8mb 73f 72f
10:40  -   -   -  27 34 mph 1018.9mb 73f 72f
10:30  -   -   -  27 34 mph 1018.9mb 73f 72f
10:20  -   -   -  27 31 mph 1019mb 73f 72f
10:10  -   -   -  27 34 mph 1019mb 73f 72f
10:00  -   -   -  27 34 mph 1019mb 73f 72f
9:50 8ft 8s 6s 27 31 mph 1019mb 73f 72f
9:40  -   -   -  27 31 mph 1019mb 73f 72f
9:30  -   -   -  25 34 mph 1019.1mb 73f 72f
9:20  -   -   -  27 31 mph 1019.1mb 73f 72f
9:10  -   -   -  25 31 mph 1019.3mb 73f 72f
9:00  -   -   -  27 31 mph 1019.3mb 73f 72f
8:50 7.5ft 7s 5s 27 31 mph 1019.4mb 73f 72f
8:40  -   -   -  27 31 mph 1019.3mb 73f 72f
8:30  -   -   -  25 31 mph 1019.4mb 73f 72f
8:20  -   -   -  25 29 mph 1019.4mb - 72f
8:10  -   -   -  25 31 mph 1019.4mb 73f 72f
8:00  -   -   -  25 31 mph 1019.3mb 73f 72f
7:50 8.5ft 7s 6s 25 31 mph 1019.3mb 73f 72f
7:40  -   -   -  25 31 mph 1019.3mb 73f 72f
7:30  -   -   -  27 31 mph 1019.4mb 73f 72f
7:20  -   -   -  25 31 mph 1019.5mb 73f 72f
7:10  -   -   -  25 31 mph 1019.4mb 73f 72f
7:00  -   -   -  25 29 mph 1019.5mb 73f 72f
6:50 8ft 8s 6s 25 29 mph 1019.6mb 73f 72f
6:40  -   -   -  25 29 mph 1019.6mb 73f 72f
6:30  -   -   -  25 29 mph 1019.6mb 73f 72f
6:20  -   -   -  25 29 mph 1019.8mb 73f 72f
6:10  -   -   -  22 29 mph 1019.8mb 73f 72f
6:00  -   -   -  22 29 mph 1019.6mb 73f 72f
5:50 9ft 8s 6s 22 29 mph 1019.8mb 73f 72f
5:40  -   -   -  25 27 mph 1019.5mb 73f 72f
5:30  -   -   -  22 29 mph 1019.5mb 73f 72f
5:20  -   -   -  25 29 mph 1019.5mb 73f 72f
5:10  -   -   -  25 29 mph 1019.6mb 73f 72f
5:00  -   -   -  25 29 mph 1019.5mb 73f 72f
4:50 8.5ft 8s 6s 25 29 mph 1019.5mb 73f 72f
4:40  -   -   -  25 31 mph 1019.3mb 73f 72f
4:30  -   -   -  25 29 mph 1019.3mb 73f 72f
4:20  -   -   -  25 31 mph 1019.3mb 73f 72f
4:10  -   -   -  25 29 mph 1019.4mb 73f 72f
4:00  -   -   -  22 29 mph 1019.5mb 73f 72f
3:50 9ft 8s 6s 22 29 mph 1019.5mb 73f 72f
3:40  -   -   -  22 29 mph 1019.5mb 73f 72f
3:30  -   -   -  25 29 mph 1019.3mb 73f 72f
3:20  -   -   -  25 31 mph 1019.3mb 73f 72f
3:10  -   -   -  25 31 mph 1019.1mb 73f 72f
3:00  -   -   -  25 29 mph 1019.1mb 73f 72f
2:50 9ft 7s 6s 25 31 mph 1019.3mb 73f 72f
2:40  -   -   -  25 31 mph 1019.3mb 73f 72f
2:30  -   -   -  25 31 mph 1019.4mb 73f 72f
2:20  -   -   -  25 31 mph 1019.4mb 73f 72f
2:10  -   -   -  22 31 mph 1019.8mb 73f 72f
2:00  -   -   -  22 29 mph 1019.8mb 73f 72f
1:50 8ft 6s 6s 22 29 mph 1019.9mb 73f 72f
1:40  -   -   -  25 29 mph 1020.1mb 73f 72f
1:30  -   -   -  25 29 mph 1020.3mb 73f 72f
1:20  -   -   -  25 31 mph 1020.3mb 73f 72f
1:10  -   -   -  22 27 mph 1020.4mb 73f 72f
1:00  -   -   -  22 29 mph 1020.5mb 73f 72f
12:50 8ft 7s 6s 22 29 mph 1020.5mb 73f 72f
12:40  -   -   -  25 29 mph 1020.5mb 73f 72f
12:30  -   -   -  25 29 mph 1020.5mb 73f 72f
12:20  -   -   -  25 29 mph 1020.8mb 73f 72f
12:10  -   -   -  22 29 mph 1020.9mb 73f 72f
12:00  -   -   -  25 29 mph 1020.9mb 73f 72f
11:50 8ft 7s 6s 22 29 mph 1021mb 73f 72f
11:40  -   -   -  22 29 mph 1021.1mb 73f 72f
11:30  -   -   -  22 29 mph 1021.4mb 73f 72f
11:20  -   -   -  22 27 mph 1021.5mb 73f 72f
11:10  -   -   -  25 31 mph 1021.6mb 73f 72f
11:00  -   -   -  22 29 mph 1021.9mb 73f 72f
10:50 7ft 7s 6s 25 29 mph 1022mb 73f 72f
10:40 7ft  -  6s 25 29 mph 1022mb 73f 72f
10:30  -   -   -  22 29 mph 1022.3mb 73f 72f
10:20  -   -   -  22 29 mph 1022.4mb 73f 72f
10:10  -   -   -  22 29 mph 1022.5mb 73f 72f
10:00  -   -   -  22 29 mph 1022.5mb 73f 72f
9:50 7.5ft 6s 6s 25 29 mph 1022.5mb 73f 72f
9:40  -   -   -  22 29 mph 1022.5mb 73f 72f
9:30  -   -   -  22 29 mph 1022.5mb 73f 72f
9:20  -   -   -  25 31 mph 1022.4mb 73f 72f
9:10  -   -   -  25 31 mph 1022.3mb 73f 72f
9:00  -   -   -  25 31 mph 1022mb 73f 72f
8:50 7.5ft 7s 6s 27 31 mph 1022.3mb 73f 72f
8:40  -   -   -  27 31 mph 1022mb 73f 72f
8:30  -   -   -  25 29 mph 1021.9mb 73f 72f
8:20  -   -   -  25 31 mph 1022mb 73f 72f
8:10  -   -   -  27 31 mph 1022mb 73f 72f
8:00  -   -   -  25 31 mph 1021.9mb 73f 72f
7:50 7.5ft 8s 5s 22 29 mph 1021.8mb 73f 72f
7:40  -   -   -  25 29 mph 1021.5mb 73f 72f
7:30  -   -   -  22 29 mph 1021.4mb 73f 72f
7:20  -   -   -  25 29 mph 1021.4mb 73f 72f
7:10  -   -   -  25 31 mph 1021.5mb 73f 72f
7:00  -   -   -  25 29 mph 1021mb 73f 72f
6:50 8ft 7s 6s 25 31 mph 1021mb 73f 72f
6:40 8ft  -  6s 25 31 mph 1021.1mb 73f 72f
6:30  -   -   -  25 31 mph 1021mb 73f 72f
6:20  -   -   -  25 31 mph 1021mb 73f 72f
6:10  -   -   -  27 31 mph 1020.9mb 73f 72f
6:00  -   -   -  25 31 mph 1021mb 73f 72f
5:50 7.5ft 8s 5s 27 31 mph 1021mb 73f 72f
5:40  -   -   -  27 34 mph 1020.9mb 73f 72f
5:30  -   -   -  27 31 mph 1020.9mb 73f 72f
5:20  -   -   -  25 31 mph 1020.9mb 73f 72f
5:10  -   -   -  25 31 mph 1021.1mb 73f 72f
5:00  -   -   -  25 29 mph 1021.1mb 73f 72f
4:50 7.5ft 7s 5s 27 34 mph 1021.4mb 73f 72f
4:40  -   -   -  25 31 mph 1021.4mb 73f 72f
4:30  -   -   -  25 34 mph 1021.3mb 73f 72f
4:20  -   -   -  22 29 mph 1021.1mb 73f 72f
4:10  -   -   -  25 31 mph 1021mb 73f 72f
4:00  -   -   -  25 31 mph 1021mb 73f 72f
3:50 7.5ft 7s 5s 25 31 mph 1021mb 74f 72f
3:40  -   -   -  25 31 mph 1021.1mb 73f 71f
3:30  -   -   -  27 31 mph 1021mb 74f 71f
3:20  -   -   -  27 31 mph 1021mb 74f 71f
3:10  -   -   -  27 31 mph 1021mb 74f 71f
3:00  -   -   -  25 31 mph 1021.1mb 74f 71f
2:50 7ft 7s 5s 27 34 mph 1021.1mb 74f 71f
2:40  -   -   -  27 36 mph 1021mb 74f 71f
2:30  -   -   -  25 34 mph 1021mb 74f 71f
2:20  -   -   -  25 34 mph 1021mb 74f 71f
2:10  -   -   -  27 34 mph 1021.1mb 74f 71f
2:00  -   -   -  27 31 mph 1021.3mb 74f 71f
1:50 8ft 6s 5s 27 31 mph 1021.1mb 74f 71f
1:40  -   -   -  27 34 mph 1021mb 74f 71f
1:30  -   -   -  27 34 mph 1020.9mb 74f 71f
1:20  -   -   -  25 31 mph 1021mb 74f 71f
1:10  -   -   -  25 31 mph 1021mb 74f 71f
1:00  -   -   -  25 31 mph 1021mb 74f 71f
12:50 7.5ft 6s 5s 27 31 mph 1021.1mb 74f 71f
12:40  -   -   -  25 31 mph 1021.3mb 74f 71f
12:30  -   -   -  25 31 mph 1021.5mb 74f 71f
12:20  -   -   -  25 31 mph 1021.6mb 74f 71f
12:10  -   -   -  25 31 mph 1021.6mb 74f 71f
12:00  -   -   -  27 31 mph 1021.6mb 74f 71f
mié 02/03 11:50 7.5ft 6s 5s 25 34 mph 1021.6mb 74f 71f
11:40  -   -   -  27 34 mph 1021.8mb 74f 71f
11:30  -   -   -  27 31 mph 1021.6mb 74f 71f
11:20  -   -   -  27 31 mph 1021.8mb 74f 71f
11:10  -   -   -  27 31 mph 1021.8mb 74f 71f
11:00  -   -   -  27 34 mph 1021.8mb 74f 71f
10:50 7ft 6s 5s 27 31 mph 1021.8mb 74f 71f
10:40  -   -   -  27 34 mph 1021.6mb 74f 71f
10:30  -   -   -  27 34 mph 1022mb 74f 71f
10:20  -   -   -  27 34 mph 1022mb 74f 71f
10:10  -   -   -  27 31 mph 1021.9mb 74f 71f
10:00  -   -   -  27 34 mph 1021.8mb 74f 71f
9:50 7ft 6s 5s 27 34 mph 1021.8mb 74f 71f
9:40  -   -   -  29 36 mph 1022mb 74f 71f
9:30  -   -   -  29 36 mph 1021.6mb 74f 71f
9:20  -   -   -  29 36 mph 1021.8mb 74f 71f
9:10  -   -   -  27 34 mph 1022mb 74f 71f
9:00  -   -   -  27 34 mph 1022mb 74f 71f
8:50 7ft 6s 5s 27 34 mph 1022mb 74f 71f
8:40  -   -   -  27 34 mph 1021.6mb 74f 71f
8:30  -   -   -  27 34 mph 1021.9mb 74f 71f
8:20  -   -   -  27 31 mph 1022mb 74f 71f
8:10  -   -   -  27 34 mph 1022.3mb 74f 71f
8:00  -   -   -  27 34 mph 1022.1mb 74f 71f
7:50 7ft 6s 5s 27 31 mph 1022mb 74f 71f
7:40  -   -   -  27 31 mph 1022mb 74f 71f
7:30  -   -   -  27 34 mph 1022mb 74f 71f
7:20  -   -   -  27 34 mph 1021.9mb 74f 71f
7:10  -   -   -  27 34 mph 1022.1mb 74f 71f
7:00  -   -   -  27 34 mph 1022.3mb 74f 71f
6:50 6ft 6s 5s 27 31 mph 1022.3mb 74f 71f
6:40  -   -   -  25 31 mph 1022.1mb 74f 71f
6:30  -   -   -  27 31 mph 1022.3mb 74f 71f
6:20  -   -   -  25 34 mph 1022.1mb 74f 71f
6:10  -   -   -  25 31 mph 1021.9mb 74f 71f
6:00  -   -   -  25 31 mph 1021.8mb 74f 71f
5:50 6ft 6s 5s 25 31 mph 1021.9mb 74f 71f
5:40  -   -   -  27 31 mph 1021.8mb 74f 71f
5:30  -   -   -  27 31 mph 1021.6mb 74f 71f
5:20  -   -   -  27 31 mph 1021.6mb 74f 71f
5:10  -   -   -  27 31 mph 1021.6mb 74f 71f
5:00  -   -   -  25 31 mph 1021.8mb 74f 71f
4:50 6ft 6s 5s 25 34 mph 1021.9mb 74f 71f
4:40  -   -   -  25 31 mph 1021.8mb 74f 71f
4:30  -   -   -  25 31 mph 1021.8mb 74f 71f
4:20  -   -   -  25 29 mph 1021.5mb 74f 71f
4:10  -   -   -  25 29 mph 1021.5mb 74f 71f
4:00  -   -   -  25 31 mph 1021.5mb 74f 71f
3:50 5.5ft 6s 5s 25 29 mph 1021.5mb 74f 71f
3:40 5.5ft  -  5s 25 29 mph 1021.5mb 74f 71f
3:30  -   -   -  25 29 mph 1021.6mb 74f 71f
3:20  -   -   -  25 29 mph 1021.6mb 74f 71f
3:10  -   -   -  22 27 mph 1021.8mb 74f 71f
3:00  -   -   -  22 29 mph 1021.9mb 74f 71f
2:50 5.5ft 5s 5s 25 29 mph 1021.6mb 74f 71f
2:40  -   -   -  25 29 mph 1021.8mb 74f 71f
2:30  -   -   -  25 29 mph 1021.8mb 74f 71f
2:20  -   -   -  25 31 mph 1022mb 74f 71f
2:10  -   -   -  25 29 mph 1022.1mb 74f 71f
2:00  -   -   -  22 27 mph 1022.4mb 74f 71f
1:50 5ft 6s 5s 22 29 mph 1022.4mb 74f 71f
1:40  -   -   -  25 29 mph 1022.4mb 74f 71f
1:30  -   -   -  25 27 mph 1022.4mb 74f 71f
1:20  -   -   -  22 27 mph 1022.5mb 74f 71f
1:10  -   -   -  25 29 mph 1022.8mb 74f 71f
1:00  -   -   -  22 27 mph 1022.8mb 74f 71f
12:50 5.5ft 5s 5s 22 27 mph 1023mb 74f 71f
12:40  -   -   -  22 27 mph 1023.4mb 74f 70f
12:30  -   -   -  22 27 mph 1023.4mb 74f 71f
12:20  -   -   -  22 27 mph 1023.5mb 74f 71f
12:10  -   -   -  22 27 mph 1023.8mb 74f 71f
12:00  -   -   -  22 29 mph 1023.6mb 74f 71f
11:50 5ft 6s 5s 22 29 mph 1023.8mb 74f 71f
11:40  -   -   -  22 27 mph 1023.8mb 74f 71f
11:30  -   -   -  22 29 mph 1024.2mb 74f 71f
11:20  -   -   -  22 27 mph 1024.3mb 74f 71f
11:10  -   -   -  22 27 mph 1024.5mb 74f 70f
11:00  -   -   -  20 27 mph 1024.8mb 74f 70f
10:50 5ft 6s 5s 20 25 mph 1025mb 74f 70f
10:40  -   -   -  20 27 mph 1025.2mb 74f 70f
10:30  -   -   -  22 27 mph 1025.3mb 74f 70f
10:20  -   -   -  20 25 mph 1025.3mb 74f 70f
10:10  -   -   -  20 25 mph 1025.5mb 74f 70f
10:00  -   -   -  20 25 mph 1025.5mb 74f 70f
9:50 5.5ft 6s 5s 20 27 mph 1025.3mb 74f 70f
9:40  -   -   -  20 27 mph 1025.3mb 74f 70f
9:30  -   -   -  20 25 mph 1025.3mb 74f 70f
9:20  -   -   -  20 25 mph 1025.3mb 74f 70f
9:10  -   -   -  20 27 mph 1025.3mb 74f 70f
9:00  -   -   -  22 27 mph 1025mb 74f 70f
8:50 5ft 9s 5s 20 25 mph 1025.2mb 74f 70f
8:40  -   -   -  20 25 mph 1025.3mb 74f 70f
8:30  -   -   -  20 25 mph 1025mb 74f 70f
8:20  -   -   -  20 25 mph 1025mb 74f 70f
8:10  -   -   -  20 25 mph 1024.7mb 74f 70f
8:00  -   -   -  20 25 mph 1024.5mb 74f 70f
7:50 5ft 7s 5s 20 27 mph 1024.5mb 74f 70f
7:40 5ft  -  5s 20 27 mph 1024.5mb 74f 70f
7:30  -   -   -  20 27 mph 1024.5mb 74f 70f
7:20  -   -   -  18 22 mph 1024.5mb 74f 70f
7:10  -   -   -  20 25 mph 1024.5mb 74f 70f
7:00  -   -   -  18 25 mph 1024.5mb 74f 70f
6:50 4.5ft 7s 5s 18 22 mph 1024.3mb 74f 70f
6:40  -   -   -  18 22 mph 1024.3mb 74f 70f
6:30  -   -   -  18 25 mph 1024.2mb 74f 70f
6:20  -   -   -  18 25 mph 1024mb 74f 70f
6:10  -   -   -  20 25 mph 1024mb 74f 70f
6:00  -   -   -  22 27 mph 1023.9mb 74f 70f
5:50 4.5ft 7s 5s 20 27 mph 1023.6mb 74f 70f
5:40  -   -   -  20 27 mph 1023.8mb 74f 70f
5:30  -   -   -  20 25 mph 1023.8mb 74f 70f
5:20  -   -   -  18 25 mph 1023.9mb 74f 70f
5:10  -   -   -  7 18 mph 1024mb 74f 68f
5:00  -   -   -  9 13 mph 1024.3mb 74f 68f
4:50 4.5ft 7s 5s 11 16 mph 1024.3mb 74f 69f
4:40  -   -   -  13 18 mph 1024mb 74f 69f
4:30  -   -   -  11 16 mph 1023.9mb 74f 70f
4:20  -   -   -  9 13 mph 1023.9mb 74f 70f
4:10  -   -   -  11 13 mph 1023.9mb 74f 70f
4:00  -   -   -  11 16 mph 1023.8mb 74f 70f
3:50 4.5ft 7s 5s 11 16 mph 1023.6mb 74f 69f
3:40  -   -   -  13 16 mph 1023.8mb 74f 70f
3:30  -   -   -  13 20 mph 1023.9mb 74f 70f
3:20  -   -   -  11 16 mph 1023.8mb 74f 70f
3:10  -   -   -  13 18 mph 1023.6mb 74f 70f
3:00  -   -   -  13 18 mph 1023.8mb 74f 70f
2:50 4.5ft 7s 5s 13 16 mph 1024mb 74f 70f
2:40  -   -   -  13 18 mph 1024mb 74f 70f
2:30  -   -   -  13 18 mph 1024.2mb 74f 69f
2:20  -   -   -  11 16 mph 1024mb 74f 69f
2:10  -   -   -  13 18 mph 1024mb 74f 69f
2:00  -   -   -  11 16 mph 1024mb 74f 69f
1:50 4.5ft 8s 5s 13 18 mph 1024.2mb 74f 69f
1:40  -   -   -  13 18 mph 1024mb 74f 69f
1:30  -   -   -  16 20 mph 1024mb 74f 69f
1:20  -   -   -  13 18 mph 1024mb 74f 69f
1:10  -   -   -  13 18 mph 1024.2mb 74f 69f
1:00  -   -   -  13 18 mph 1024.3mb 74f 69f
12:50 4.5ft 7s 5s 13 18 mph 1024.3mb 74f 69f
12:40  -   -   -  11 18 mph 1024.5mb 74f 69f
12:30  -   -   -  11 16 mph 1024.5mb 74f 69f
12:20  -   -   -  13 18 mph 1024.3mb 74f 69f
12:10  -   -   -  11 16 mph 1024.3mb 74f 69f
12:00  -   -   -  13 18 mph 1024.2mb 74f 69f
mar 02/02 11:50 4.5ft 7s 5s 11 16 mph 1024.3mb 74f 69f
11:40  -   -   -  11 16 mph 1024.5mb 74f 69f
11:30  -   -   -  11 16 mph 1024.5mb 74f 69f
11:20  -   -   -  11 16 mph 1024.7mb 74f 69f
11:10  -   -   -  11 16 mph 1024.8mb 74f 69f
11:00  -   -   -  13 18 mph 1024.8mb 74f 69f
10:50 4.5ft 6s 5s 13 16 mph 1024.8mb 74f 69f
10:40  -   -   -  11 16 mph 1024.8mb 74f 69f
10:30  -   -   -  13 18 mph 1024.8mb 74f 69f
10:20  -   -   -  13 18 mph 1024.7mb - 69f
10:10  -   -   -  13 18 mph 1024.5mb 74f 69f
10:00  -   -   -  13 18 mph 1024.7mb 74f 69f
9:50 5ft 7s 5s 13 18 mph 1024.8mb 74f 69f
9:40  -   -   -  13 20 mph 1024.8mb 74f 69f
9:30  -   -   -  16 18 mph 1024.8mb 74f 69f
9:20  -   -   -  16 20 mph 1024.8mb 74f 69f
9:10  -   -   -  16 20 mph 1024.8mb 74f 69f
9:00  -   -   -  16 20 mph 1024.8mb 74f 69f
8:50 5.5ft 6s 5s 16 18 mph 1024.7mb 74f 69f
8:40  -   -   -  16 20 mph 1024.8mb 74f 69f
8:30  -   -   -  16 20 mph 1024.8mb 74f 69f
8:20  -   -   -  16 20 mph 1024.8mb 74f 69f
8:10  -   -   -  16 20 mph 1024.5mb 74f 69f
8:00  -   -   -  16 22 mph 1024.7mb 74f 69f
7:50 6ft 7s 5s 16 22 mph 1024.5mb 74f 69f
7:40  -   -   -  18 22 mph 1024.5mb 74f 69f
7:30  -   -   -  18 22 mph 1024.5mb 74f 69f
7:20  -   -   -  18 22 mph 1024.5mb 74f 69f
7:10  -   -   -  18 22 mph 1024.3mb 74f 69f
7:00  -   -   -  18 22 mph 1024.3mb 74f 69f
6:50 7ft 7s 5s 16 22 mph 1024.2mb 74f 69f
6:40  -   -   -  16 20 mph 1024.2mb 74f 69f
6:30  -   -   -  16 20 mph 1024.3mb 74f 69f
6:20  -   -   -  16 22 mph 1024mb 74f 69f
6:10  -   -   -  18 22 mph 1023.9mb 74f 69f
6:00  -   -   -  18 22 mph 1023.9mb 74f 69f
5:50 6ft 6s 5s 18 22 mph 1023.6mb 74f 69f
5:40  -   -   -  18 22 mph 1023.5mb 74f 69f
5:30  -   -   -  18 22 mph 1023.5mb 74f 69f
5:20  -   -   -  18 22 mph 1023.5mb 74f 69f
5:10  -   -   -  18 20 mph 1023.4mb 74f 69f
5:00  -   -   -  18 22 mph 1023mb 74f 69f
4:50 6.5ft 6s 5s 18 22 mph 1022.9mb 74f 69f
4:40  -   -   -  18 22 mph 1022.8mb 74f 69f
4:30  -   -   -  18 25 mph 1022.5mb 74f 69f
4:20  -   -   -  20 25 mph 1022.4mb 74f 69f
4:10  -   -   -  20 25 mph 1022.3mb 74f 69f
4:00  -   -   -  20 27 mph 1022mb 74f 69f
3:50 6ft 6s 5s 20 27 mph 1022mb 74f 69f
3:40  -   -   -  20 27 mph 1021.6mb 74f 69f
3:30  -   -   -  22 27 mph 1021.6mb 74f 69f
3:20  -   -   -  22 29 mph 1021.5mb 74f 69f
3:10  -   -   -  20 27 mph 1021.4mb 74f 69f
3:00  -   -   -  20 27 mph 1021.3mb 74f 69f
2:50 5ft 5s 5s 18 25 mph 1021.1mb 74f 69f
2:40  -   -   -  20 25 mph 1021mb 74f 69f
2:30  -   -   -  20 27 mph 1021mb 74f 69f
2:20  -   -   -  20 25 mph 1021mb 74f 69f
2:10  -   -   -  20 25 mph 1021mb 74f 69f
2:00  -   -   -  22 29 mph 1020.9mb 74f 70f
1:50 5ft 5s 5s 22 27 mph 1020.9mb 74f 70f
1:40 5ft  -  5s 22 29 mph 1020.9mb 74f 70f
1:30  -   -   -  22 27 mph 1020.9mb 74f 70f
1:20  -   -   -  20 27 mph 1020.9mb 74f 70f
1:10  -   -   -  22 27 mph 1020.9mb - 70f
1:00  -   -   -  22 27 mph 1020.8mb 74f 70f
12:50 4.5ft 6s 5s 20 27 mph 1020.8mb 74f 70f